Date String (YYYY-MM-DD hh:mm:ss) UTC,Instrument flags,absolute air pressure of the measurement (hPa),sample flow rate (lpm),inlet stack bypass flow (lpm),air temperature of the measurement (°C),ambient temperature measured by the external sensor (°C),aerosol sample conditioner tube jacket temperature (°C),OPC LED temperature (°C),internal box temperature (°C),relative humidity of the measurement (%),span deviation,mass concentration of particles derived from Lorenz-Mie calculation of OPC scattering (μg/m³),mass concentration of particles derived from Lorenz-Mie calculation of OPC scattering (μg/m³),mass concentration of particles derived from Lorenz-Mie calculation of OPC scattering (μg/m³)
DateTimeUTC,F1_M11,P_M11,Q1_M11,Q2_M11,T1_M11,T2_M11,T3_M11,T4_M11,T5_M11,U1_M11,ZSPAN_M11,X2_M11,X0_M11,X1_M11
2024-03-13 05:00:00,SystemResetWarning,0823.1,5.00,000.00,022.9,022.1,000.0,031.5,024.8,16.9,0000.0,0003.08,0009.57,0001.50
2024-03-13 05:01:00,SystemResetWarning,0823.1,4.99,000.00,022.9,022.1,000.0,031.5,024.8,16.8,0000.0,0003.07,0009.36,0001.47
2024-03-13 05:02:00,SystemResetWarning,0823.0,5.00,000.00,022.9,022.2,000.0,031.5,024.8,17.0,0000.0,0003.08,0009.34,0001.45
2024-03-13 05:03:00,SystemResetWarning,0822.8,5.00,000.00,022.9,022.2,000.0,031.5,024.8,16.9,0000.0,0003.03,0009.34,0001.44
2024-03-13 05:04:00,SystemResetWarning,0822.7,5.01,000.00,022.9,022.2,000.0,031.5,024.8,16.8,0000.0,0003.00,0009.42,0001.42
2024-03-13 05:05:00,SystemResetWarning,0823.2,5.00,000.00,022.9,022.2,000.0,031.5,024.8,16.7,0000.0,0002.93,0008.93,0001.42
2024-03-13 05:06:00,SystemResetWarning,0823.1,5.01,000.00,022.9,022.2,000.0,031.5,024.8,16.8,0000.0,0002.89,0008.66,0001.41
2024-03-13 05:07:00,SystemResetWarning,0822.9,5.00,000.00,022.9,022.2,000.0,031.5,024.8,16.7,0000.0,0002.95,0008.24,0001.40
2024-03-13 05:08:00,SystemResetWarning,0822.6,4.99,000.00,022.9,022.2,000.0,031.5,024.8,16.6,0000.0,0002.99,0007.98,0001.41
2024-03-13 05:09:00,SystemResetWarning,0822.7,4.99,000.00,022.9,022.2,000.0,031.5,024.8,16.5,0000.0,0002.98,0007.86,0001.40
2024-03-13 05:10:00,SystemResetWarning,0822.7,5.01,000.00,022.9,022.2,000.0,031.5,024.8,16.4,0000.0,0002.92,0007.83,0001.39
2024-03-13 05:11:00,SystemResetWarning,0822.8,5.01,000.00,022.9,022.2,000.0,031.5,024.8,16.4,0000.0,0002.95,0007.99,0001.40
2024-03-13 05:12:00,SystemResetWarning,0822.7,5.01,000.00,022.9,022.2,000.0,031.5,024.8,16.3,0000.0,0003.02,0008.01,0001.42
2024-03-13 05:13:00,SystemResetWarning,0822.7,5.00,000.00,022.9,022.1,000.0,031.5,024.8,16.3,0000.0,0002.96,0007.84,0001.43
2024-03-13 05:14:00,SystemResetWarning,0822.7,4.99,000.00,022.9,022.1,000.0,031.5,024.8,16.4,0000.0,0002.94,0007.85,0001.44
2024-03-13 05:15:00,SystemResetWarning,0822.7,5.00,000.00,022.9,022.1,000.0,031.5,024.8,16.4,0000.0,0003.06,0007.85,0001.47
2024-03-13 05:16:00,SystemResetWarning,0822.7,5.01,000.00,022.9,022.1,000.0,031.5,024.7,16.4,0000.0,0003.03,0007.74,0001.47
2024-03-13 05:17:00,SystemResetWarning,0822.8,4.99,000.00,022.9,022.0,000.0,031.5,024.7,16.5,0000.0,0003.02,0007.65,0001.47
2024-03-13 05:18:00,SystemResetWarning,0822.9,4.99,000.00,022.9,022.0,000.0,031.5,024.7,16.5,0000.0,0002.99,0007.57,0001.47
2024-03-13 05:19:00,SystemResetWarning,0823.2,5.00,000.00,022.9,022.0,000.0,031.5,024.7,17.1,0000.0,0002.97,0007.68,0001.49
2024-03-13 05:20:00,SystemResetWarning,0822.7,5.01,000.00,022.9,022.0,000.0,031.5,024.7,17.4,0000.0,0002.92,0007.78,0001.50
2024-03-13 05:21:00,SystemResetWarning,0822.7,5.01,000.00,022.9,022.0,000.0,031.5,024.7,17.7,0000.0,0002.98,0007.85,0001.53
2024-03-13 05:22:00,SystemResetWarning,0822.7,4.99,000.00,022.9,022.0,000.0,031.5,024.7,17.6,0000.0,0003.02,0007.60,0001.55
2024-03-13 05:23:00,SystemResetWarning,0822.6,4.99,000.00,022.8,022.0,000.0,031.4,024.7,17.5,0000.0,0003.02,0007.88,0001.57
2024-03-13 05:24:00,SystemResetWarning,0822.7,5.00,000.00,022.8,022.0,000.0,031.4,024.7,17.4,0000.0,0003.10,0008.33,0001.59
2024-03-13 05:25:00,SystemResetWarning,0823.0,5.00,000.00,022.8,022.0,000.0,031.4,024.7,17.6,0000.0,0003.14,0008.53,0001.61
2024-03-13 05:26:00,SystemResetWarning,0822.7,5.00,000.00,022.8,022.0,000.0,031.4,024.7,17.3,0000.0,0003.12,0008.53,0001.62
2024-03-13 05:27:00,SystemResetWarning,0822.8,5.00,000.00,022.8,022.0,000.0,031.4,024.7,17.3,0000.0,0003.18,0008.64,0001.64
2024-03-13 05:28:00,SystemResetWarning,0822.9,5.00,000.00,022.8,022.0,000.0,031.4,024.7,17.2,0000.0,0003.20,0008.63,0001.68
2024-03-13 05:29:00,SystemResetWarning,0822.9,5.00,000.00,022.8,022.0,000.0,031.4,024.7,17.5,0000.0,0003.22,0008.63,0001.69
2024-03-13 05:30:00,SystemResetWarning,0822.8,5.01,000.00,022.8,022.1,000.0,031.4,024.7,17.7,0000.0,0003.21,0008.47,0001.69
2024-03-13 05:31:00,SystemResetWarning,0822.7,5.00,000.00,022.8,022.1,000.0,031.4,024.7,17.7,0000.0,0003.22,0008.45,0001.70
2024-03-13 05:32:00,SystemResetWarning,0822.8,4.99,000.00,022.9,022.1,000.0,031.4,024.7,17.6,0000.0,0003.24,0008.78,0001.70
2024-03-13 05:33:00,SystemResetWarning,0822.8,4.99,000.00,022.8,022.1,000.0,031.4,024.7,17.8,0000.0,0003.25,0008.43,0001.70
2024-03-13 05:34:00,SystemResetWarning,0822.8,4.99,000.00,022.9,022.1,000.0,031.4,024.7,17.6,0000.0,0003.25,0008.05,0001.70
2024-03-13 05:35:00,SystemResetWarning,0822.8,5.00,000.00,022.9,022.1,000.0,031.4,024.7,17.7,0000.0,0003.23,0007.86,0001.70
2024-03-13 05:36:00,SystemResetWarning,0822.7,5.01,000.00,022.9,022.1,000.0,031.4,024.7,18.0,0000.0,0003.24,0007.85,0001.70
2024-03-13 05:37:00,SystemResetWarning,0822.7,5.00,000.00,022.8,022.0,000.0,031.4,024.7,18.0,0000.0,0003.29,0007.92,0001.75
2024-03-13 05:38:00,SystemResetWarning,0822.7,5.00,000.00,022.8,022.0,000.0,031.4,024.7,18.1,0000.0,0003.30,0008.10,0001.83
2024-03-13 05:39:00,SystemResetWarning,0822.6,5.00,000.00,022.8,022.0,000.0,031.4,024.7,18.1,0000.0,0003.35,0009.53,0001.89
2024-03-13 05:40:00,SystemResetWarning,0822.7,5.00,000.00,022.8,021.9,000.0,031.4,024.6,18.1,0000.0,0003.40,0009.77,0001.97
2024-03-13 05:41:00,SystemResetWarning,0822.7,5.00,000.00,022.8,021.9,000.0,031.4,024.6,18.4,0000.0,0003.45,0009.84,0002.03
2024-03-13 05:42:00,SystemResetWarning,0822.8,5.00,000.00,022.8,021.9,000.0,031.4,024.6,18.5,0000.0,0003.46,0009.78,0002.08
2024-03-13 05:43:00,SystemResetWarning,0822.8,5.00,000.00,022.8,021.9,000.0,031.4,024.6,18.6,0000.0,0003.46,0009.87,0002.12
2024-03-13 05:44:00,SystemResetWarning,0822.7,5.00,000.00,022.8,021.9,000.0,031.4,024.6,18.6,0000.0,0003.49,0010.42,0002.17
2024-03-13 05:45:00,SystemResetWarning,0823.1,5.00,000.00,022.8,021.9,000.0,031.4,024.6,19.0,0000.0,0003.50,0010.62,0002.23
2024-03-13 05:46:00,SystemResetWarning,0823.3,5.00,000.00,022.8,021.9,000.0,031.4,024.6,19.3,0000.0,0003.54,0010.97,0002.28
2024-03-13 05:47:00,SystemResetWarning,0822.9,5.01,000.00,022.8,021.9,000.0,031.4,024.6,19.5,0000.0,0003.55,0011.83,0002.32
2024-03-13 05:48:00,SystemResetWarning,0822.7,5.00,000.00,022.8,021.9,000.0,031.4,024.6,19.7,0000.0,0003.53,0012.01,0002.32
2024-03-13 05:49:00,SystemResetWarning,0822.8,4.99,000.00,022.8,021.9,000.0,031.4,024.6,19.9,0000.0,0003.50,0011.79,0002.29
2024-03-13 05:50:00,SystemResetWarning,0822.9,4.99,000.00,022.8,021.9,000.0,031.4,024.6,20.2,0000.0,0003.52,0010.63,0002.27
2024-03-13 05:51:00,SystemResetWarning,0822.9,5.00,000.00,022.8,021.9,000.0,031.4,024.6,20.3,0000.0,0003.54,0010.85,0002.24
2024-03-13 05:52:00,SystemResetWarning,0822.8,5.00,000.00,022.8,021.9,000.0,031.3,024.6,20.4,0000.0,0003.57,0011.04,0002.24
2024-03-13 05:53:00,SystemResetWarning,0822.8,5.01,000.00,022.7,021.9,000.0,031.3,024.6,20.4,0000.0,0003.62,0011.24,0002.26
2024-03-13 05:54:00,SystemResetWarning,0822.7,5.00,000.00,022.7,021.9,000.0,031.3,024.6,20.5,0000.0,0003.67,0010.96,0002.30
2024-03-13 05:55:00,SystemResetWarning,0822.7,5.00,000.00,022.7,021.9,000.0,031.3,024.6,20.5,0000.0,0003.65,0010.34,0002.32
2024-03-13 05:56:00,SystemResetWarning,0822.8,5.00,000.00,022.7,021.9,000.0,031.3,024.6,20.6,0000.0,0003.64,0010.07,0002.33
2024-03-13 05:57:00,SystemResetWarning,0822.7,5.00,000.00,022.7,021.9,000.0,031.3,024.6,20.7,0000.0,0003.63,0009.66,0002.35
2024-03-13 05:58:00,SystemResetWarning,0822.6,5.00,000.00,022.7,021.9,000.0,031.3,024.6,20.7,0000.0,0003.67,0008.76,0002.37
2024-03-13 05:59:00,SystemResetWarning,0822.9,5.00,000.00,022.7,021.9,000.0,031.3,024.6,20.8,0000.0,0003.72,0008.68,0002.41
